| time (UTC) | temp C | wind direction | speed KPH | gust KPH | rain 1hr cm | rain 24hr cm | rain mn cm | humidity % | barometer mb |
| 20260508043105 | 7 | 45 | 4.8 | 8.0 | 0.00 | 0.00 | 0.00 | 87 | 1014.3 |
| 20260508042101 | 7 | 14 | 6.4 | 9.7 | 0.00 | 0.00 | 0.00 | 87 | 1014.3 |
| 20260508041058 | 7 | 7 | 4.8 | 9.7 | 0.00 | 0.00 | 0.00 | 87 | 1014.1 |
| 20260508040054 | 7 | 13 | 6.4 | 9.7 | 0.00 | 0.00 | 0.00 | 87 | 1014.3 |
| 20260508035051 | 6 | 4 | 6.4 | 9.7 | 0.00 | 0.00 | 0.00 | 88 | 1014.2 |
| 20260508034047 | 6 | 19 | 6.4 | 9.7 | 0.00 | 0.00 | 0.00 | 88 | 1014.1 |
| 20260508033043 | 6 | 15 | 6.4 | 9.7 | 0.00 | 0.00 | 0.00 | 87 | 1014.0 |
| 20260508032039 | 6 | 17 | 6.4 | 11.3 | 0.00 | 0.00 | 0.00 | 87 | 1014.0 |
| 20260508031057 | 6 | 21 | 6.4 | 9.7 | 0.00 | 0.00 | 0.00 | 87 | 1014.0 |
| 20260508030032 | 6 | 14 | 4.8 | 6.4 | 0.00 | 0.00 | 0.00 | 86 | 1014.0 |
| 20260508025029 | 6 | 0 | 4.8 | 8.0 | 0.00 | 0.00 | 0.00 | 86 | 1014.1 |
| 20260508024025 | 6 | 12 | 4.8 | 8.0 | 0.00 | 0.00 | 0.00 | 86 | 1014.0 |
| 20260508023121 | 6 | 24 | 4.8 | 9.7 | 0.00 | 0.00 | 0.00 | 85 | 1013.8 |
| 20260508022118 | 6 | 8 | 4.8 | 6.4 | 0.00 | 0.00 | 0.00 | 85 | 1013.7 |
| 20260508021115 | 6 | 356 | 6.4 | 11.3 | 0.00 | 0.00 | 0.00 | 85 | 1013.7 |
| 20260508020110 | 6 | 0 | 4.8 | 8.0 | 0.00 | 0.00 | 0.00 | 85 | 1013.9 |
| 20260508015108 | 6 | 23 | 6.4 | 11.3 | 0.00 | 0.00 | 0.00 | 85 | 1013.8 |
| 20260508014103 | 6 | 48 | 6.4 | 9.7 | 0.00 | 0.00 | 0.00 | 84 | 1013.8 |
| 20260508013100 | 6 | 36 | 4.8 | 8.0 | 0.00 | 0.00 | 0.00 | 84 | 1013.8 |
| 20260508012057 | 6 | 21 | 4.8 | 8.0 | 0.00 | 0.00 | 0.00 | 84 | 1013.9 |
| 20260508011052 | 6 | 15 | 6.4 | 9.7 | 0.00 | 0.00 | 0.00 | 83 | 1013.8 |
| 20260508010049 | 6 | 4 | 8.0 | 14.5 | 0.00 | 0.00 | 0.00 | 83 | 1013.8 |
| 20260508005125 | 6 | 40 | 6.4 | 11.3 | 0.00 | 0.00 | 0.00 | 83 | 1013.9 |
| 20260508004042 | 6 | 38 | 6.4 | 9.7 | 0.00 | 0.00 | 0.00 | 82 | 1013.9 |
| 20260508003039 | 6 | 50 | 6.4 | 12.9 | 0.00 | 0.00 | 0.00 | 82 | 1014.0 |
| 20260508002034 | 6 | 337 | 8.0 | 12.9 | 0.00 | 0.00 | 0.00 | 82 | 1014.0 |
| 20260508001052 | 6 | 45 | 8.0 | 14.5 | 0.00 | 0.00 | 0.00 | 82 | 1013.9 |
| 20260508000027 | 6 | 31 | 9.7 | 19.3 | 0.00 | 0.00 | 0.00 | 82 | 1013.8 |
| 20260507235124 | 6 | 33 | 6.4 | 12.9 | 0.00 | 0.00 | 0.00 | 81 | 1013.7 |
| 20260507234121 | 6 | 18 | 9.7 | 14.5 | 0.00 | 0.00 | 0.00 | 81 | 1013.7 |
| 20260507233117 | 6 | 19 | 6.4 | 9.7 | 0.00 | 0.00 | 0.00 | 81 | 1013.9 |
| 20260507232113 | 6 | 15 | 9.7 | 16.1 | 0.00 | 0.00 | 0.00 | 81 | 1013.9 |
| 20260507231110 | 6 | 0 | 9.7 | 17.7 | 0.00 | 0.00 | 0.00 | 80 | 1013.8 |
| 20260507230106 | 6 | 10 | 8.0 | 14.5 | 0.00 | 0.00 | 0.00 | 80 | 1013.8 |
| 20260507225102 | 6 | 24 | 6.4 | 12.9 | 0.00 | 0.00 | 0.00 | 80 | 1013.7 |
| 20260507224059 | 7 | 8 | 8.0 | 12.9 | 0.00 | 0.00 | 0.00 | 79 | 1013.7 |
| 20260507223115 | 7 | 354 | 6.4 | 12.9 | 0.00 | 0.00 | 0.00 | 78 | 1013.6 |
| 20260507222052 | 7 | 352 | 9.7 | 16.1 | 0.00 | 0.00 | 0.00 | 78 | 1013.6 |
| 20260507221047 | 7 | 41 | 8.0 | 12.9 | 0.00 | 0.00 | 0.00 | 78 | 1013.7 |
| 20260507220044 | 7 | 26 | 8.0 | 12.9 | 0.00 | 0.00 | 0.00 | 78 | 1013.6 |
| 20260507215040 | 7 | 3 | 8.0 | 14.5 | 0.00 | 0.00 | 0.00 | 78 | 1013.5 |
| 20260507214037 | 7 | 22 | 8.0 | 12.9 | 0.00 | 0.00 | 0.00 | 77 | 1013.5 |
| 20260507213033 | 7 | 35 | 8.0 | 16.1 | 0.00 | 0.00 | 0.00 | 77 | 1013.4 |
| 20260507212029 | 7 | 12 | 11.3 | 17.7 | 0.00 | 0.00 | 0.00 | 77 | 1013.3 |
| 20260507211026 | 7 | 11 | 8.0 | 14.5 | 0.00 | 0.00 | 0.00 | 77 | 1013.4 |
| 20260507210143 | 7 | 11 | 9.7 | 12.9 | 0.00 | 0.00 | 0.00 | 76 | 1013.5 |
| 20260507205139 | 7 | 6 | 8.0 | 16.1 | 0.00 | 0.00 | 0.00 | 76 | 1013.3 |
| 20260507204115 | 7 | 353 | 6.4 | 9.7 | 0.00 | 0.00 | 0.00 | 75 | 1013.1 |
| 20260507203112 | 7 | 0 | 8.0 | 12.9 | 0.00 | 0.00 | 0.00 | 74 | 1013.1 |
| 20260507202108 | 7 | 28 | 8.0 | 14.5 | 0.00 | 0.00 | 0.00 | 74 | 1013.1 |
| 20260507201109 | 7 | 18 | 8.0 | 16.1 | 0.00 | 0.00 | 0.00 | 75 | 1013.0 |
| 20260507195058 | 7 | 3 | 11.3 | 16.1 | 0.00 | 0.00 | 0.00 | 75 | 1012.7 |
| 20260507194054 | 7 | 35 | 11.3 | 19.3 | 0.00 | 0.00 | 0.00 | 75 | 1012.5 |
| 20260507193050 | 7 | 356 | 9.7 | 12.9 | 0.00 | 0.00 | 0.00 | 76 | 1012.5 |
| 20260507192106 | 7 | 18 | 9.7 | 17.7 | 0.00 | 0.00 | 0.00 | 75 | 1012.4 |
| 20260507191042 | 7 | 30 | 11.3 | 17.7 | 0.00 | 0.00 | 0.00 | 74 | 1012.3 |
| 20260507190120 | 7 | 28 | 12.9 | 20.9 | 0.00 | 0.00 | 0.00 | 74 | 1012.2 |
| 20260507185036 | 8 | 39 | 12.9 | 22.5 | 0.00 | 0.00 | 0.00 | 75 | 1012.2 |
| 20260507184032 | 8 | 41 | 9.7 | 19.3 | 0.00 | 0.00 | 0.00 | 75 | 1012.2 |
| 20260507183028 | 8 | 23 | 12.9 | 22.5 | 0.00 | 0.00 | 0.00 | 75 | 1012.0 |
| 20260507182030 | 8 | 31 | 12.9 | 19.3 | 0.00 | 0.00 | 0.00 | 75 | 1011.8 |
| 20260507181121 | 8 | 45 | 14.5 | 24.1 | 0.00 | 0.00 | 0.00 | 75 | 1011.7 |
| 20260507180118 | 8 | 34 | 9.7 | 22.5 | 0.00 | 0.00 | 0.00 | 75 | 1011.6 |
| 20260507175114 | 8 | 23 | 16.1 | 27.4 | 0.00 | 0.00 | 0.00 | 75 | 1011.7 |
| 20260507174110 | 8 | 3 | 11.3 | 17.7 | 0.00 | 0.00 | 0.00 | 74 | 1011.4 |
| 20260507173107 | 8 | 34 | 14.5 | 24.1 | 0.00 | 0.00 | 0.00 | 73 | 1011.4 |
| 20260507172103 | 8 | 19 | 12.9 | 20.9 | 0.00 | 0.00 | 0.00 | 73 | 1011.3 |
| 20260507171105 | 8 | 47 | 16.1 | 24.1 | 0.00 | 0.00 | 0.00 | 72 | 1011.4 |
| 20260507170116 | 8 | 12 | 16.1 | 24.1 | 0.00 | 0.00 | 0.00 | 71 | 1011.1 |
| 20260507165053 | 9 | 235 | 14.5 | 24.1 | 0.00 | 0.00 | 0.00 | 71 | 1011.3 |
| 20260507164049 | 9 | 37 | 14.5 | 24.1 | 0.00 | 0.00 | 0.00 | 72 | 1011.0 |
| 20260507163045 | 9 | 49 | 14.5 | 22.5 | 0.00 | 0.00 | 0.00 | 71 | 1011.0 |
| 20260507162102 | 9 | 45 | 11.3 | 19.3 | 0.00 | 0.00 | 0.00 | 71 | 1011.0 |
| 20260507161038 | 9 | 70 | 14.5 | 22.5 | 0.00 | 0.00 | 0.00 | 71 | 1011.0 |
| 20260507160035 | 9 | 51 | 14.5 | 24.1 | 0.00 | 0.00 | 0.00 | 71 | 1011.0 |
| 20260507155031 | 9 | 32 | 14.5 | 20.9 | 0.00 | 0.00 | 0.00 | 70 | 1010.9 |
| 20260507154028 | 10 | 37 | 14.5 | 27.4 | 0.00 | 0.00 | 0.00 | 71 | 1010.7 |
| 20260507153024 | 10 | 37 | 16.1 | 25.7 | 0.00 | 0.00 | 0.00 | 71 | 1010.7 |
| 20260507152121 | 10 | 28 | 12.9 | 22.5 | 0.00 | 0.00 | 0.00 | 70 | 1010.7 |
| 20260507145110 | 10 | 41 | 12.9 | 20.9 | 0.00 | 0.00 | 0.00 | 68 | 1010.6 |
| 20260507144106 | 10 | 52 | 14.5 | 24.1 | 0.00 | 0.00 | 0.00 | 70 | 1010.5 |
| 20260507143103 | 10 | 19 | 12.9 | 20.9 | 0.00 | 0.00 | 0.00 | 67 | 1010.6 |
| 20260507142059 | 10 | 45 | 11.3 | 24.1 | 0.00 | 0.00 | 0.00 | 68 | 1010.7 |
| 20260507141115 | 10 | 45 | 12.9 | 22.5 | 0.00 | 0.00 | 0.00 | 68 | 1010.5 |
| 20260507140052 | 10 | 32 | 16.1 | 24.1 | 0.00 | 0.00 | 0.00 | 68 | 1010.4 |
| 20260507135048 | 10 | 44 | 12.9 | 20.9 | 0.00 | 0.00 | 0.00 | 68 | 1010.4 |
| 20260507134045 | 10 | 38 | 12.9 | 20.9 | 0.00 | 0.00 | 0.00 | 69 | 1010.3 |
| 20260507133101 | 10 | 43 | 16.1 | 24.1 | 0.00 | 0.00 | 0.00 | 67 | 1010.2 |
| 20260507132037 | 10 | 61 | 16.1 | 24.1 | 0.00 | 0.00 | 0.00 | 66 | 1010.2 |
| 20260507131034 | 10 | 51 | 11.3 | 24.1 | 0.00 | 0.00 | 0.00 | 66 | 1010.0 |
| 20260507130030 | 10 | 7 | 16.1 | 25.7 | 0.00 | 0.00 | 0.00 | 65 | 1009.9 |
| 20260507125046 | 11 | 56 | 14.5 | 22.5 | 0.00 | 0.00 | 0.00 | 64 | 1009.9 |
| 20260507124123 | 11 | 15 | 12.9 | 17.7 | 0.00 | 0.00 | 0.00 | 65 | 1009.8 |
| 20260507123120 | 11 | 17 | 11.3 | 17.7 | 0.00 | 0.00 | 0.00 | 66 | 1009.7 |
| 20260507122116 | 11 | 11 | 16.1 | 27.4 | 0.00 | 0.00 | 0.00 | 64 | 1009.8 |
| 20260507121112 | 11 | 34 | 12.9 | 20.9 | 0.00 | 0.00 | 0.00 | 65 | 1009.7 |
| 20260507120113 | 11 | 40 | 16.1 | 27.4 | 0.00 | 0.00 | 0.00 | 64 | 1009.6 |
| 20260507115105 | 11 | 31 | 12.9 | 19.3 | 0.00 | 0.00 | 0.00 | 65 | 1009.5 |
| 20260507114102 | 10 | 16 | 11.3 | 29.0 | 0.00 | 0.00 | 0.00 | 67 | 1009.4 |
| 20260507113057 | 10 | 23 | 11.3 | 19.3 | 0.00 | 0.00 | 0.00 | 68 | 1009.4 |
| 20260507112054 | 10 | 47 | 14.5 | 24.1 | 0.00 | 0.00 | 0.00 | 70 | 1009.5 |
| 20260507111050 | 10 | 24 | 9.7 | 24.1 | 0.00 | 0.00 | 0.00 | 71 | 1009.3 |
| 20260507110107 | 10 | 61 | 12.9 | 20.9 | 0.00 | 0.00 | 0.00 | 71 | 1009.2 |
| 20260507105043 | 10 | 29 | 14.5 | 22.5 | 0.00 | 0.00 | 0.00 | 73 | 1009.1 |
| 20260507104040 | 10 | 29 | 16.1 | 27.4 | 0.00 | 0.00 | 0.00 | 73 | 1009.0 |
| 20260507103036 | 9 | 27 | 12.9 | 24.1 | 0.00 | 0.00 | 0.00 | 76 | 1009.0 |
| 20260507102052 | 8 | 8 | 17.7 | 24.1 | 0.00 | 0.00 | 0.00 | 78 | 1009.0 |
| 20260507101030 | 8 | 0 | 17.7 | 25.7 | 0.00 | 0.00 | 0.00 | 79 | 1008.9 |
| 20260507100026 | 8 | 4 | 16.1 | 24.1 | 0.00 | 0.00 | 0.00 | 78 | 1008.9 |
| 20260507095122 | 8 | 4 | 11.3 | 19.3 | 0.00 | 0.00 | 0.00 | 78 | 1009.0 |
| 20260507094118 | 8 | 10 | 11.3 | 17.7 | 0.00 | 0.00 | 0.00 | 78 | 1008.9 |
| 20260507093116 | 8 | 22 | 11.3 | 17.7 | 0.00 | 0.00 | 0.00 | 78 | 1008.7 |
| 20260507092111 | 8 | 0 | 14.5 | 22.5 | 0.00 | 0.00 | 0.00 | 78 | 1008.7 |
| 20260507091108 | 8 | 57 | 8.0 | 17.7 | 0.00 | 0.00 | 0.00 | 80 | 1008.6 |
| 20260507090105 | 8 | 40 | 17.7 | 27.4 | 0.00 | 0.00 | 0.00 | 80 | 1008.3 |
| 20260507085100 | 8 | 59 | 14.5 | 24.1 | 0.00 | 0.00 | 0.00 | 81 | 1008.1 |
| 20260507084057 | 7 | 46 | 16.1 | 24.1 | 0.00 | 0.00 | 0.00 | 81 | 1008.0 |
| 20260507083053 | 7 | 25 | 16.1 | 25.7 | 0.00 | 0.00 | 0.00 | 82 | 1007.9 |
| 20260507082050 | 7 | 38 | 14.5 | 24.1 | 0.00 | 0.00 | 0.00 | 82 | 1008.0 |
| 20260507081045 | 7 | 26 | 12.9 | 20.9 | 0.00 | 0.00 | 0.00 | 83 | 1008.0 |
| 20260507080042 | 7 | 26 | 12.9 | 22.5 | 0.00 | 0.00 | 0.00 | 83 | 1008.0 |
| 20260507075038 | 7 | 0 | 12.9 | 17.7 | 0.00 | 0.00 | 0.00 | 83 | 1007.7 |
| 20260507074116 | 7 | 9 | 11.3 | 20.9 | 0.00 | 0.00 | 0.00 | 83 | 1007.6 |
| 20260507073052 | 7 | 52 | 14.5 | 25.7 | 0.00 | 0.00 | 0.00 | 83 | 1007.4 |
| 20260507072028 | 7 | 8 | 14.5 | 24.1 | 0.00 | 0.00 | 0.00 | 84 | 1007.3 |
| 20260507071024 | 7 | 11 | 14.5 | 24.1 | 0.00 | 0.00 | 0.00 | 85 | 1007.3 |
| 20260507070121 | 6 | 19 | 11.3 | 22.5 | 0.00 | 0.00 | 0.00 | 86 | 1007.4 |
| 20260507065117 | 6 | 32 | 12.9 | 20.9 | 0.00 | 0.00 | 0.00 | 87 | 1007.5 |
| 20260507064113 | 6 | 20 | 12.9 | 19.3 | 0.00 | 0.00 | 0.00 | 88 | 1007.5 |
| 20260507063110 | 6 | 16 | 17.7 | 25.7 | 0.00 | 0.00 | 0.00 | 89 | 1007.3 |
| 20260507062127 | 6 | 5 | 14.5 | 22.5 | 0.00 | 0.00 | 0.00 | 89 | 1007.2 |
| 20260507061103 | 6 | 42 | 12.9 | 19.3 | 0.00 | 0.00 | 0.00 | 90 | 1007.1 |
| 20260507060120 | 6 | 44 | 14.5 | 22.5 | 0.00 | 0.00 | 0.00 | 90 | 1006.7 |
| 20260507055056 | 6 | 19 | 12.9 | 19.3 | 0.00 | 0.00 | 0.00 | 90 | 1006.5 |
| 20260507054056 | 6 | 12 | 12.9 | 22.5 | 0.00 | 0.00 | 0.00 | 90 | 1006.4 |
| 20260507053048 | 6 | 19 | 14.5 | 22.5 | 0.00 | 0.00 | 0.00 | 90 | 1006.5 |
| 20260507052044 | 6 | 14 | 9.7 | 16.1 | 0.00 | 0.00 | 0.00 | 90 | 1006.2 |
| 20260507051041 | 6 | 21 | 11.3 | 17.7 | 0.00 | 0.00 | 0.00 | 91 | 1006.2 |
| 20260507050138 | 6 | 51 | 12.9 | 20.9 | 0.00 | 0.00 | 0.00 | 91 | 1006.2 |
| 20260507045033 | 6 | 29 | 14.5 | 22.5 | 0.00 | 0.00 | 0.00 | 91 | 1006.1 |